www.pogodaiklimat.ru

АРХИВ ПОГОДЫ в Хьюстоне

Время (UTC), дата Ветер
(напр.,м/с)
 
Видим.   Явления Облачность Т
(С)
Тd
(С)
f
(%)
Тe
(С)
Тes
(С)
Комфортность

P
(гПа)

Po
(гПа)
Тmin
(С)
Tmax
(С)
R
(мм)
SD
(см)
10:53 21.05 Ю  8
{13} 
14 км    8/8 600 м
[верхняя] 
+26.1  +21.7  77  +34  +34  очень
душно 
1005.8  1003.6  +25.6  +26.7     
11:53 21.05 Ю  9
{13} 
14 км    8/8 600 м
[верхняя] 
+26.7  +21.7  74  +34  +34  очень
душно 
1006.2  1004.0         
12:53 21.05 Ю  8
{13} 
13 км    8/8 600 м
[верхняя] 
+27.8  +21.7  69  +36  +36  очень
душно 
1006.0  1004.0         
13:36 21.05 Ю  7
{11} 
14 км    8/8 750 м
[верхняя] 
+27.8  +22.2  72  +36  +37  очень
душно 
  1004.3         
13:53 21.05 Ю  8
{14} 
14 км    8/8 750 м  +28.3  +21.7  67  +36  +36  очень
душно 
1006.4  1004.3         
14:53 21.05 Ю  8
{13} 
14 км    8/8 750 м
[верхняя] 
+28.9  +22.2  67  +38  +38  очень
душно 
1007.3  1005.3         
15:32 21.05 Ю  8
{13} 
16 км    8/8 870 м
[верхняя] 
+30.0  +22.2  63  +39  +39  очень
душно 
  1005.7         
15:53 21.05 Ю  9
{15} 
16 км    8/8 870 м
[верхняя] 
+29.4  +22.2  65  +38  +38  очень
душно 
1008.1  1006.0         
16:53 21.05 Ю  16 км    8/8 900 м
[верхняя] 
+30.6  +23.3  65  +41  +42  опасность
перегрева 
1007.4  1005.3  +26.1  +30.6     
17:53 21.05 Ю  8
{12} 
16 км    8/8 840 м  +30.6  +22.8  63  +40  +41  очень
душно 
1006.7  1004.6         
18:53 21.05 Ю  10
{13} 
16 км    8/8 960 м
[верхняя] 
+31.1  +22.2  59  +40  +40  очень
душно 
1005.8  1003.6         
19:53 21.05 Ю  9
{13} 
16 км    8/8 930 м
[верхняя] 
+31.1  +22.8  61  +41  +41  опасность
перегрева 
1005.6  1003.6         
20:53 21.05 Ю  8
{11} 
16 км    8/8 840 м
[средняя] 
+31.1  +22.8  61  +41  +41  опасность
перегрева 
1004.8  1002.6         
21:53 21.05 Ю  8
{11} 
14 км    8/8 900 м
[средняя] 
+30.0  +23.3  67  +40  +40  очень
душно 
1005.0  1003.0         
22:53 21.05 Ю  8
{12} 
14 км    8/8 720 м  +28.9  +23.3  72  +39  +39  очень
душно 
1005.2  1003.0  +28.9  +32.2     
23:22 21.05 Ю  13 км    8/8 660 м  +28.9  +23.9  74  +40  +40  очень
душно 
  1003.0         
23:53 21.05 Ю  13 км    8/8 480 м  +28.3  +23.9  77  +39  +39  очень
душно 
1005.5  1003.3         
00:53 22.05 ЮВ  13 км    8/8 510 м  +27.8  +24.4  82  +39  +39  очень
душно 
1006.1  1004.0         
01:53 22.05 Ю  13 км    8/8 360 м  +27.2  +24.4  85  +38  +38  очень
душно 
1006.6  1004.3         
02:41 22.05 Ю  13 км    8/8 390 м  +27.2  +24.4  85  +38  +38  очень
душно 
  1005.3         
02:53 22.05 Ю  13 км    8/8 390 м  +27.2  +24.4  85  +38  +38  очень
душно 
1007.4  1005.3         
03:53 22.05 Ю  13 км    8/8 390 м  +27.2  +24.4  85  +38  +38  очень
душно 
1007.7  1005.7         
04:53 22.05 Ю  13 км    8/8 420 м  +27.2  +23.9  82  +37  +37  очень
душно 
1007.6  1005.3  +27.2  +29.4     
05:53 22.05 Ю  13 км    8/8 420 м  +27.2  +23.9  82  +37  +37  очень
душно 
1007.6  1005.3         
06:53 22.05 Ю  13 км    8/8 420 м  +27.2  +23.3  79  +37  +37  очень
душно 
1007.7  1005.7         
07:53 22.05 Ю  13 км    8/8 420 м  +26.7  +23.9  85  +37  +37  очень
душно 
1007.7  1005.7         
08:37 22.05 ЮВ  14 км    8/8 480 м  +26.7  +23.3  82  +36  +36  очень
душно 
  1005.7         
08:53 22.05 Ю  14 км    8/8 480 м  +26.7  +23.3  82  +36  +36  очень
душно 
1007.9  1005.7         
09:53 22.05 Ю  14 км    8/8 450 м  +26.1  +23.3  85  +35  +35  очень
душно 
1008.2  1006.0         
10:53 22.05 Ю  13 км    8/8 450 м  +26.1  +22.8  82  +35  +35  очень
душно 
1009.0  1006.7  +26.1  +27.2     
11:53 22.05 ЮВ  14 км    8/8 540 м  +26.7  +22.8  79  +35  +35  очень
душно 
1009.6  1007.4         
12:53 22.05 Ю  9
{11} 
16 км    8/8 600 м  +27.2  +22.2  74  +35  +35  очень
душно 
1010.3  1008.0         
13:30 22.05 Ю  16 км    5/5 600 м  +28.3  +22.2  70  +37  +37  очень
душно 
  1008.4         
13:53 22.05 Ю  8
{12} 
16 км    5/5 660 м  +28.3  +21.7  67  +36  +36  очень
душно 
1010.9  1008.7         
14:53 22.05 Ю  8
{13} 
16 км    5/5 840 м  +30.6  +21.7  59  +39  +39  очень
душно 
1011.0  1009.0         
15:53 22.05 Ю  8
{11} 
16 км    5/5 840 м  +30.6  +22.2  61  +40  +40  очень
душно 
1011.6  1009.4         
16:53 22.05 Ю  8
{12} 
16 км    5/5 750 м  +31.1  +22.8  61  +41  +42  опасность
перегрева 
1011.5  1009.4  +26.1  +31.1     
17:05 22.05 Ю  7
{13} 
16 км    8/8 780 м  +31.1  +23.3  63  +42  +42  опасность
перегрева 
  1009.4         
17:36 22.05 Ю  7
{13} 
16 км    5/5 750 м  +30.6  +23.3  65  +41  +43  опасность
перегрева 
  1009.4         
17:53 22.05 ЮВ  8
{12} 
16 км    8/8 750 м  +30.6  +23.3  65  +41  +41  опасность
перегрева 
1011.4  1009.4         
18:53 22.05 Ю  7
{12} 
16 км    8/8 750 м  +31.1  +23.3  63  +42  +42  опасность
перегрева 
1011.1  1009.0         
19:40 22.05 Ю  16 км    8/8 690 м  +30.6  +23.9  67  +42  +42  опасность
перегрева 
  1009.0         
19:53 22.05 Ю  8
{12} 
16 км    8/8 690 м  +30.6  +23.9  67  +42  +42  опасность
перегрева 
1011.0  1009.0         
20:53 22.05 ЮВ  8
{11} 
14 км    10/10 660 м  +30.0  +23.3  67  +40  +40  очень
душно 
1011.0  1009.0         
21:53 22.05 ЮВ  8
{11} 
14 км    10/10 630 м  +29.4  +23.3  70  +40  +40  очень
душно 
1011.1  1008.7         
22:53 22.05 ЮВ  14 км    10/10 630 м  +28.9  +23.3  72  +39  +39  очень
душно 
1011.0  1008.7  +28.9  +31.1     
23:53 22.05 ЮВ  8
{11} 
14 км    10/10 0 м  +28.3  +23.3  74  +38  +38  очень
душно 
1011.4  1009.0         
00:53 23.05 ЮВ  7
{10} 
16 км    10/10 540 м  +27.8  +23.3  77  +38  +38  очень
душно 
1012.0  1009.7         

 

Местоположение метеостанции Houston Hobby Airport: широта 29.6375 долгота -95.2825 высота над уровнем моря 14 м.

В архиве по умолчанию представлена погода в Хьюстоне за последние 1-2 суток. Обновление информации о фактической погоде в базе происходит ежечасно! Архивные данные за месяц целиком и за предыдущие месяцы Вы можете получить, выбрав интересующий диапазон дат из раскрывающегося списка и нажав кнопку "Ввод!".

Внимание! Архив погоды МЕТАР в базе сайта в настоящее время начинается c 1 января 2011 г. Нет смысла пытаться выбрать более раннюю дату.

Внимание! Время в таблицах - всемирное. Для получения местного времени необходимо прибавить поправку, которая в Хьюстоне равна -6 ч.

Ветер - указаны скорость ветра в м/с и направление, откуда дует ветер: С - северный, СВ - северо-восточный, В - восточный, ЮВ - юго-восточный, Ю - южный, ЮЗ - юго-западный, З - западный, СЗ - северо-западный.
Видимость - горизонтальная дальность видимости в метрах или километрах. При видимости от 1 до 10 км при отсутствии осадков обычно наблюдается дымка, при ухудшении видимости до 1 км и менее - туман. В сухую погоду видимость может ухудшаться дымом, пылью или мглою.
Атмосферные явления - указаны явления, наблюдавшиеся в указанный момент времени.
Облачность - указаны через наклонную черту верхняя и нижняя облачность в баллах и высота нижней границы облаков в метрах. Внимание: облачность, как и прочие метеорологические величины в США измеряются автоматическими метеостанциями. Указанные значения в баллах носят условный характер и показывают процент времени, в течение которого, в среднем, лазерный луч высотомера отражался от облаков обратно.
T - Температура воздуха - температура, измеренная на высоте 2 м над землей.
Td - Температура точки росы - температура, при понижении до которой содержащийся в воздухе водяной пар достигнет насыщения.
f - Относительная влажность воздуха - влажноcть воздуха, измеренная на высоте 2 м над землей.
Te - Эффективная температура - температура, которую ощущает одетый по сезону человек в тени. Характеристика душности погоды. При расчете учитывается влияние влажности воздуха и скорости ветра на теплоощущения человека.
Tes - Эффективная температура на солнце - температура, которую ощущает человек, с поправкой на солнечный нагрев. Характеристика знойности погоды. Зависит от высоты солнца над горизонтом, облачности и скорости ветра. Ночью, в пасмурную погоду, а также при ветре 12 м/с и более поправка равна нулю.
P - Атмосферное давление - приведенное к уровню моря атмосферное давление.
Po - Атмосферное давление - измеренное на уровне метеостанции атмосферное давление.
Tmin - Минимальная температура - минимум температуры воздуха на высоте 2 м над землей.
Tmax - Максимальная температура - максимум температуры воздуха на высоте 2 м над землей.
R - Количество осадков - Количество выпавших осадков за 3 или 6 часов, мм.
SD - Снежный покров - Высота снежного покрова, см.